{"data":{"norad_id":65870,"intl_designator":"2025-223S","name":"STARLINK-35433","alt_names":[],"object_type":"PAYLOAD","status":"ACTIVE","operator":null,"country":"US","launch_date":"2025-10-03","launch_site_code":"AFWTR","launch_vehicle":null,"mission":null,"orbit_class":"UNKNOWN","rcs_meters":null,"size_class":null,"mass_kg":null,"dimensions":null,"purposes":["comms"],"wikipedia_slug":null,"has_3d_model":false,"image_url":null,"decayed_at":null,"tle_current":{"epoch":"2026-09-20T22:51:26.229888Z","epoch_age_seconds":67045,"freshness":"FRESH","line1":"1 65870U 25223S   26263.95238692  .00002836  00000+0  95107-4 0  9997","line2":"2 65870  53.1551 105.6096 0002214  91.7211 268.4046 15.34385457 54133","mean_motion":15.34385457,"eccentricity":0.0002214,"inclination_deg":53.1551,"raan_deg":105.6096,"arg_perigee_deg":91.7211,"mean_anomaly_deg":268.4046,"bstar":9.5107e-5,"rev_number":5413,"period_min":93.848647576174,"perigee_km":461.23189381007,"apogee_km":464.26103700855,"semimajor_km":6840.8834654093,"source":"CELESTRAK","updated_at":"2026-09-21T09:00:35.751960Z"}}}